Weather History for KJST - November, 2013

Change the Weather History Date:

Friday, November 8, 2013

  Actual Average Record
Temperature  
Mean Temperature 33 °F 43 °F  
Max Temperature 37 °F 49 °F 77 °F (1945)
Min Temperature 28 °F 36 °F 20 °F (1930)
Degree Days  
Heating Degree Days 32 22  
Month to date heating degree days 189 167  
Since 1 July heating degree days 898 860  
Cooling Degree Days 0 0  
Month to date cooling degree days 0 0  
Year to date cooling degree days 393 382  
Moisture  
Dew Point 24 °F    
Average Humidity 67    
Maximum Humidity 78    
Minimum Humidity 56    
Precipitation  
Precipitation T in 0.11 in 0.88 in (1943)
Month to date precipitation 0.56 0.98  
Year to date precipitation 32.21 28.33  
Sea Level Pressure  
Sea Level Pressure 30.17 in    
Wind  
Wind Speed 13 mph (West)    
Max Wind Speed 24 mph    
Max Gust Speed 33 mph    
Visibility 10 miles    
Events Snow    
T = Trace of Precipitation, MM = Missing Value Source: NWS Daily Summary

Daily Weather History Graph

Daily Weather History Graph

Search for Another Location

Airport or City:

Trip Planner

Search our weather history database for the weather conditions in past years. The results will help you decide how hot, cold, wet, or windy it might be!

Date:

Astronomy

Nov. 08, 2013 Rise Set
Actual Time 6:53 AM EST 5:04 PM EST
Civil Twilight 6:24 AM EST 5:33 PM EST
Nautical Twilight 5:52 AM EST 6:05 PM EST
Astronomical Twilight 5:20 AM EST 6:37 PM EST
Moon 11:47 AM EST (11/8) 10:23 PM EST (11/8)
Length of Visible Light 11h 08m
Length of Day
10h 11m
Waxing Crescent, 33% of the Moon is Illuminated
Nov 8
Waxing Crescent
Nov 10
First Quarter
Nov 17
Full
Nov 25
Last Quarter
Dec 2
New

Hourly Weather History & Observations

Time (EST) Temp. Windchill Dew Point Humidity Pressure Visibility Wind Dir Wind Speed Gust Speed Precip Events Conditions
12:11 AM 32.0 °F 23.0 °F 26.6 °F 80% 30.02 in 7.0 mi West 11.5 mph 23.0 mph 0.00 in Snow Light Snow
12:25 AM 32.0 °F 22.1 °F 26.6 °F 80% 30.01 in 9.0 mi West 13.8 mph - 0.00 in Snow Light Snow
12:37 AM 32.0 °F 22.1 °F 26.6 °F 80% 30.01 in 10.0 mi West 13.8 mph - 0.00 in   Scattered Clouds
12:54 AM 32.0 °F 23.0 °F 25.0 °F 75% 30.07 in 10.0 mi West 11.5 mph 23.0 mph 0.00 in   Clear
1:54 AM 32.0 °F 23.0 °F 25.0 °F 75% 30.07 in 10.0 mi West 11.5 mph - N/A   Overcast
2:54 AM 33.1 °F 24.9 °F 25.0 °F 72% 30.06 in 10.0 mi West 10.4 mph 16.1 mph N/A   Overcast
3:39 AM 33.8 °F 24.3 °F 24.8 °F 70% 30.01 in 10.0 mi West 13.8 mph 21.9 mph N/A   Overcast
3:54 AM 33.1 °F 22.6 °F 25.0 °F 72% 30.08 in 10.0 mi West 16.1 mph 21.9 mph N/A   Overcast
4:54 AM 33.1 °F 23.0 °F 26.1 °F 75% 30.09 in 10.0 mi West 15.0 mph 23.0 mph N/A   Overcast
5:54 AM 32.0 °F 22.5 °F 26.1 °F 79% 30.11 in 10.0 mi West 12.7 mph 20.7 mph N/A   Overcast
6:54 AM 32.0 °F 21.2 °F 26.1 °F 79% 30.14 in 10.0 mi West 16.1 mph - N/A   Overcast
7:54 AM 32.0 °F 20.8 °F 25.0 °F 75% 30.16 in 10.0 mi West 17.3 mph - N/A   Overcast
8:54 AM 32.0 °F 20.8 °F 25.0 °F 75% 30.20 in 10.0 mi WNW 17.3 mph 24.2 mph N/A   Overcast
9:54 AM 33.1 °F 23.4 °F 25.0 °F 72% 30.22 in 10.0 mi WNW 13.8 mph 21.9 mph N/A   Overcast
10:42 AM 33.8 °F 23.9 °F 24.8 °F 70% 30.16 in 7.0 mi West 15.0 mph 24.2 mph 0.00 in Snow Light Snow
10:54 AM 35.1 °F 23.5 °F 25.0 °F 67% 30.23 in 9.0 mi West 21.9 mph 26.5 mph 0.00 in   Overcast
11:54 AM 35.1 °F 25.5 °F 23.0 °F 61% 30.22 in 10.0 mi West 15.0 mph 21.9 mph N/A   Overcast
12:54 PM 36.0 °F 26.0 °F 21.9 °F 57% 30.22 in 10.0 mi West 17.3 mph 24.2 mph N/A   Overcast
1:54 PM 36.0 °F 26.0 °F 21.0 °F 55% 30.23 in 10.0 mi WNW 17.3 mph 31.1 mph N/A   Overcast
2:54 PM 36.0 °F 26.0 °F 21.0 °F 55% 30.22 in 10.0 mi WNW 17.3 mph 27.6 mph N/A   Overcast
3:54 PM 36.0 °F 27.1 °F 21.9 °F 57% 30.24 in 10.0 mi WNW 13.8 mph - N/A   Mostly Cloudy
4:54 PM 35.1 °F 26.9 °F 21.9 °F 59% 30.25 in 10.0 mi WNW 11.5 mph - N/A   Overcast
5:54 PM 33.1 °F 26.9 °F 21.0 °F 61% 30.27 in 10.0 mi West 6.9 mph - N/A   Mostly Cloudy
6:54 PM 33.1 °F 24.4 °F 21.0 °F 61% 30.28 in 10.0 mi WNW 11.5 mph - N/A   Overcast
7:54 PM 33.1 °F 26.1 °F 21.0 °F 61% 30.29 in 10.0 mi WNW 8.1 mph - N/A   Overcast
8:54 PM 32.0 °F 25.6 °F 19.9 °F 61% 30.30 in 10.0 mi WNW 6.9 mph - N/A   Mostly Cloudy
9:54 PM 30.0 °F 25.2 °F 21.0 °F 69% 30.30 in 10.0 mi WNW 4.6 mph - N/A   Mostly Cloudy
10:54 PM 28.9 °F 22.8 °F 21.0 °F 72% 30.30 in 10.0 mi NW 5.8 mph - N/A   Clear
11:54 PM 28.9 °F 23.9 °F 21.0 °F 72% 30.30 in 10.0 mi West 4.6 mph - N/A   Clear